• In Lithuania
  • List of Countries
  • For 7 days
  • Water Temperature
  • Satellite Maps
  • Weather Map
  • Weather Widgets
  • user-avatar
    Login

    Hourly Weather Tyrgowishte

    Today, 21 October, Sunday

    Time Temperature Precipitation Wind Pressure Humidity
    00:00 +13°C° 0 mm 2 mps 746 mmHg 84%
    01:00 +13°C° 0 mm 2 mps 746 mmHg 84%
    02:00 +13°C° 0 mm 2 mps 746 mmHg 84%
    03:00 +13°C° 0 mm 2 mps 746 mmHg 84%
    04:00 +13°C° 0 mm 2 mps 746 mmHg 85%
    05:00 +13°C° 0 mm 2 mps 745 mmHg 86%
    06:00 +13°C° 0 mm 2 mps 746 mmHg 84%
    07:00 +13°C° 0 mm 2 mps 746 mmHg 82%
    08:00 +14°C° 0 mm 2 mps 746 mmHg 80%
    09:00 +15°C° 0 mm 2 mps 746 mmHg 74%
    10:00 +17°C° 0 mm 2 mps 746 mmHg 68%
    11:00 +18°C° 0 mm 2 mps 746 mmHg 62%
    12:00 +18°C° 0.1 mm 3 mps 746 mmHg 61%
    13:00 +19°C° 0.1 mm 3 mps 746 mmHg 59%
    14:00 +19°C° 0.1 mm 3 mps 746 mmHg 57%
    15:00 +18°C° 0.1 mm 3 mps 746 mmHg 60%
    16:00 +18°C° 0.1 mm 3 mps 746 mmHg 64%
    17:00 +17°C° 0.1 mm 2 mps 746 mmHg 67%
    18:00 +16°C° 0.1 mm 2 mps 746 mmHg 70%
    19:00 +16°C° 0.1 mm 2 mps 746 mmHg 73%
    20:00 +15°C° 0.1 mm 2 mps 747 mmHg 76%
    21:00 +14°C° 0 mm 2 mps 747 mmHg 77%
    22:00 +14°C° 0 mm 2 mps 747 mmHg 77%
    23:00 +14°C° 0 mm 2 mps 747 mmHg 78%

    Tomorrow, 22 October, Monday

    Time Temperature Precipitation Wind Pressure Humidity
    00:00 +13°C° 0 mm 2 mps 748 mmHg 79%
    01:00 +13°C° 0 mm 2 mps 748 mmHg 79%
    02:00 +12°C° 0 mm 2 mps 748 mmHg 80%
    03:00 +12°C° 0 mm 2 mps 748 mmHg 81%
    04:00 +10°C° 0 mm 2 mps 748 mmHg 82%
    05:00 +10°C° 0 mm 2 mps 748 mmHg 83%
    06:00 +10°C° 0 mm 2 mps 748 mmHg 80%
    07:00 +10°C° 0 mm 2 mps 748 mmHg 78%
    08:00 +12°C° 0 mm 2 mps 749 mmHg 76%
    09:00 +12°C° 0 mm 3 mps 749 mmHg 69%
    10:00 +14°C° 0 mm 3 mps 749 mmHg 62%
    11:00 +16°C° 0 mm 3 mps 749 mmHg 56%
    12:00 +17°C° 0 mm 3 mps 748 mmHg 53%
    13:00 +18°C° 0 mm 3 mps 748 mmHg 50%
    14:00 +18°C° 0 mm 3 mps 748 mmHg 47%
    15:00 +18°C° 0 mm 3 mps 747 mmHg 49%
    16:00 +17°C° 0 mm 3 mps 747 mmHg 52%
    17:00 +16°C° 0 mm 2 mps 747 mmHg 54%
    18:00 +15°C° 0 mm 2 mps 747 mmHg 57%
    19:00 +14°C° 0 mm 2 mps 747 mmHg 61%
    20:00 +12°C° 0 mm 1 mps 748 mmHg 64%
    21:00 +12°C° 0 mm 1 mps 748 mmHg 65%
    22:00 +12°C° 0 mm 1 mps 748 mmHg 66%
    23:00 +11°C° 0 mm 1 mps 748 mmHg 67%

    Day after tomorrow, 23 October, Tuesday

    Time Temperature Precipitation Wind Pressure Humidity
    00:00 +11°C° 0 mm 1 mps 747 mmHg 68%
    01:00 +10°C° 0 mm 1 mps 747 mmHg 68%
    02:00 +10°C° 0 mm 1 mps 747 mmHg 69%
    03:00 +10°C° 0 mm 1 mps 747 mmHg 70%
    04:00 +10°C° 0 mm 1 mps 747 mmHg 71%
    05:00 +9°C° 0 mm 1 mps 746 mmHg 72%
    06:00 +9°C° 0 mm 0 mps 747 mmHg 69%
    07:00 +10°C° 0 mm 0 mps 747 mmHg 66%
    08:00 +10°C° 0 mm 0 mps 747 mmHg 63%
    09:00 +13°C° 0 mm 1 mps 747 mmHg 56%
    10:00 +15°C° 0 mm 1 mps 747 mmHg 49%
    11:00 +18°C° 0 mm 1 mps 747 mmHg 42%
    12:00 +19°C° 0 mm 1 mps 746 mmHg 40%
    13:00 +19°C° 0 mm 1 mps 746 mmHg 39%
    14:00 +20°C° 0 mm 1 mps 745 mmHg 37%
    15:00 +19°C° 0 mm 1 mps 745 mmHg 40%
    16:00 +18°C° 0 mm 1 mps 745 mmHg 44%
    17:00 +16°C° 0 mm 1 mps 744 mmHg 47%
    18:00 +15°C° 0 mm 1 mps 744 mmHg 50%
    19:00 +14°C° 0 mm 1 mps 744 mmHg 53%
    20:00 +13°C° 0 mm 1 mps 744 mmHg 56%
    21:00 +13°C° 0 mm 1 mps 743 mmHg 57%
    22:00 +12°C° 0 mm 1 mps 743 mmHg 58%
    23:00 +12°C° 0 mm 2 mps 743 mmHg 60%

    24 October, Wednesday

    Time Temperature Precipitation Wind Pressure Humidity
    00:00 +12°C° 0 mm 2 mps 742 mmHg 60%
    01:00 +10°C° 0 mm 2 mps 742 mmHg 61%
    02:00 +10°C° 0 mm 3 mps 741 mmHg 61%
    03:00 +10°C° 0 mm 3 mps 740 mmHg 63%
    04:00 +10°C° 0 mm 4 mps 740 mmHg 64%
    05:00 +10°C° 0 mm 4 mps 739 mmHg 65%
    06:00 +9°C° 0 mm 5 mps 739 mmHg 63%
    07:00 +10°C° 0 mm 6 mps 739 mmHg 60%
    08:00 +10°C° 0 mm 6 mps 738 mmHg 57%
    09:00 +12°C° 0 mm 7 mps 738 mmHg 52%
    10:00 +13°C° 0 mm 8 mps 737 mmHg 48%
    11:00 +16°C° 0 mm 9 mps 737 mmHg 43%
    12:00 +16°C° 0 mm 9 mps 736 mmHg 42%
    13:00 +17°C° 0 mm 9 mps 735 mmHg 42%
    14:00 +17°C° 0 mm 10 mps 735 mmHg 41%
    15:00 +16°C° 0 mm 9 mps 734 mmHg 43%
    16:00 +16°C° 0 mm 8 mps 734 mmHg 45%
    17:00 +15°C° 0 mm 8 mps 734 mmHg 47%
    18:00 +13°C° 0.1 mm 8 mps 734 mmHg 52%
    19:00 +12°C° 0.1 mm 8 mps 734 mmHg 56%
    20:00 +11°C° 0.1 mm 8 mps 735 mmHg 61%
    21:00 +10°C° 0.4 mm 8 mps 735 mmHg 58%
    22:00 +9°C° 0.4 mm 7 mps 736 mmHg 56%
    23:00 +6°C° 0.4 mm 7 mps 737 mmHg 54%

    25 October, Thursday

    Time Temperature Precipitation Wind Pressure Humidity
    00:00 +7°C° 0.1 mm 5 mps 737 mmHg 52%
    01:00 +6°C° 0.1 mm 4 mps 737 mmHg 49%
    02:00 +7°C° 0.1 mm 3 mps 738 mmHg 47%
    03:00 +5°C° 0 mm 3 mps 738 mmHg 49%
    04:00 +4°C° 0 mm 3 mps 738 mmHg 51%
    05:00 +3°C° 0 mm 3 mps 738 mmHg 52%
    06:00 +4°C° 0 mm 4 mps 739 mmHg 51%
    07:00 +4°C° 0 mm 4 mps 739 mmHg 50%
    08:00 +3°C° 0 mm 5 mps 739 mmHg 50%
    09:00 +5°C° 0 mm 6 mps 740 mmHg 45%
    10:00 +7°C° 0 mm 6 mps 740 mmHg 41%
    11:00 +8°C° 0 mm 7 mps 740 mmHg 36%
    12:00 +9°C° 0 mm 7 mps 740 mmHg 35%
    13:00 +10°C° 0 mm 7 mps 740 mmHg 33%
    14:00 +10°C° 0 mm 7 mps 740 mmHg 31%
    15:00 +9°C° 0 mm 6 mps 740 mmHg 33%
    16:00 +9°C° 0 mm 5 mps 740 mmHg 35%
    17:00 +8°C° 0 mm 4 mps 741 mmHg 37%
    18:00 +7°C° 0 mm 4 mps 741 mmHg 39%
    19:00 +7°C° 0 mm 4 mps 741 mmHg 41%
    20:00 +6°C° 0 mm 4 mps 742 mmHg 43%
    21:00 +6°C° 0 mm 4 mps 742 mmHg 47%
    22:00 +6°C° 0 mm 4 mps 742 mmHg 50%
    23:00 +5°C° 0 mm 4 mps 742 mmHg 54%

    26 October, Friday

    Time Temperature Precipitation Wind Pressure Humidity
    00:00 +5°C° 0 mm 4 mps 742 mmHg 59%
    01:00 +5°C° 0 mm 3 mps 742 mmHg 64%
    02:00 +5°C° 0 mm 3 mps 742 mmHg 69%
    03:00 +7°C° 0 mm 3 mps 742 mmHg 72%
    04:00 +7°C° 0 mm 3 mps 742 mmHg 74%
    05:00 +7°C° 0 mm 3 mps 742 mmHg 77%
    06:00 +8°C° 0 mm 3 mps 743 mmHg 76%
    07:00 +7°C° 0 mm 4 mps 743 mmHg 76%
    08:00 +8°C° 0 mm 4 mps 743 mmHg 75%
    09:00 +11°C° 0 mm 4 mps 744 mmHg 69%
    10:00 +12°C° 0 mm 5 mps 744 mmHg 62%
    11:00 +14°C° 0 mm 5 mps 744 mmHg 56%
    12:00 +15°C° 0 mm 5 mps 744 mmHg 52%
    13:00 +17°C° 0 mm 4 mps 744 mmHg 49%
    14:00 +18°C° 0 mm 4 mps 744 mmHg 45%
    15:00 +17°C° 0 mm 3 mps 744 mmHg 48%
    16:00 +16°C° 0 mm 2 mps 744 mmHg 51%
    17:00 +15°C° 0 mm 1 mps 744 mmHg 53%
    18:00 +14°C° 0 mm 2 mps 744 mmHg 56%
    19:00 +13°C° 0 mm 2 mps 744 mmHg 58%
    20:00 +13°C° 0 mm 2 mps 744 mmHg 60%
    21:00 +12°C° 0 mm 2 mps 745 mmHg 60%
    22:00 +12°C° 0 mm 2 mps 745 mmHg 61%
    23:00 +12°C° 0 mm 2 mps 745 mmHg 62%
    Show more